Weather History for Jask, Iran

Change the Weather History Date:

Sunday, February 17, 2013

  Actual Average Record
Temperature  
Mean Temperature 73 °F -  
Max Temperature 78 °F - - ()
Min Temperature 68 °F - - ()
Cooling Degree Days 8    
Growing Degree Days 23 (Base 50)    
Moisture  
Dew Point 56 °F    
Average Humidity 53    
Maximum Humidity 68    
Minimum Humidity 38    
Precipitation  
Precipitation 0.00 in - - ()
Sea Level Pressure  
Sea Level Pressure 29.82 in    
Wind  
Wind Speed 13 mph ()    
Max Wind Speed 22 mph    
Max Gust Speed -    
Visibility 4.4 miles    
Events      
T = Trace of Precipitation, MM = Missing Value Source: Averaged Metar Reports

Daily Weather History Graph

Daily Weather History Graph

Search for Another Location

Airport:

Trip Planner

Search our weather history database for the weather conditions in past years. The results will help you decide how hot, cold, wet, or windy it might be!

Date:

Astronomy

Feb. 17, 2013 Rise Set
Actual Time 6:12 AM IRST 5:33 PM IRST
Civil Twilight 5:48 AM IRST 5:56 PM IRST
Nautical Twilight 5:22 AM IRST 6:23 PM IRST
Astronomical Twilight 4:55 AM IRST 6:50 PM IRST
Moon 10:34 AM IRST (2/17) 12:14 AM IRST (2/18)
Length of Visible Light 12h 07m
Length of Day
11h 21m
Waxing Crescent, 45% of the Moon is Illuminated
Feb 17
Waxing Crescent
Feb 18
First Quarter
Feb 25
Full
Mar 5
Last Quarter
Mar 11
New

Hourly Weather History & Observations

Time (IRST) Temp. Dew Point Humidity Pressure Visibility Wind Dir Wind Speed Gust Speed Precip Events Conditions
12:30 AM 69.8 °F 55.4 °F 60% 29.86 in 5.0 mi NW 11.5 mph - N/A   Clear
3:30 AM 68 °F 55 °F 55% 29.88 in 5 mi NNW 11.2 mph - -   Haze
3:30 AM 68.0 °F 55.4 °F 64% 29.86 in 5.0 mi NNW 11.5 mph - N/A   Clear
5:30 AM 68.0 °F 55.4 °F 64% 29.86 in 5.0 mi North 13.8 mph - N/A   Clear
6:30 AM 68.0 °F 55.4 °F 64% 29.86 in 5.0 mi NNW 13.8 mph - N/A   Unknown
7:30 AM 68.0 °F 57.2 °F 68% 29.86 in 5.0 mi North 6.9 mph - N/A   Unknown
8:30 AM 68.0 °F 55.4 °F 64% 29.89 in 5.0 mi NNW 9.2 mph - N/A   Unknown
9:30 AM 69 °F 59 °F 61% 29.90 in 5 mi WNW 8.9 mph - -   Haze
9:30 AM 69.8 °F 59.0 °F 68% 29.89 in 5.0 mi WNW 9.2 mph - N/A   Unknown
10:30 AM 69.8 °F 50.0 °F 49% 29.89 in 5.0 mi NW 11.5 mph - N/A   Unknown
11:30 AM 77.0 °F 53.6 °F 44% 29.86 in 5.0 mi WNW 18.4 mph - N/A   Unknown
12:30 PM 78.8 °F 59.0 °F 51% 29.83 in 5.0 mi West 20.7 mph - N/A   Unknown
1:30 PM 77.0 °F 59.0 °F 54% 29.80 in 5.0 mi SW 18.4 mph - N/A   Unknown
2:30 PM 78.8 °F 59.0 °F 51% 29.77 in 3.7 mi West 21.9 mph - N/A   Unknown
3:30 PM 77 °F 60 °F 45% 29.79 in 4 mi WNW 17.9 mph - -   Blowing Sand
3:30 PM 77.0 °F 59.0 °F 54% 29.77 in 3.7 mi WNW 18.4 mph - N/A   Unknown
4:20 PM 77.0 °F 59.0 °F 54% 29.77 in 3.7 mi WNW 21.9 mph - N/A   Unknown
4:30 PM 77.0 °F 59.0 °F 54% 29.77 in 3.7 mi WNW 21.9 mph - N/A   Unknown
5:20 PM 75.2 °F 57.2 °F 53% 29.77 in 3.7 mi West 18.4 mph - N/A   Unknown
5:30 PM 75.2 °F 57.2 °F 53% 29.77 in 3.7 mi West 18.4 mph - N/A   Unknown
6:20 PM 75.2 °F 53.6 °F 47% 29.77 in 3.7 mi WNW 18.4 mph - N/A   Unknown
6:30 PM 75.2 °F 53.6 °F 47% 29.77 in 3.7 mi WNW 18.4 mph - N/A   Unknown
7:20 PM 75.2 °F 53.6 °F 47% 29.77 in 3.7 mi NW 16.1 mph - N/A   Unknown
7:30 PM 75.2 °F 53.6 °F 47% 29.77 in 3.7 mi NW 16.1 mph - N/A   Unknown
8:20 PM 75.2 °F 53.6 °F 47% 29.80 in 4.3 mi NW 16.1 mph - N/A   Unknown
8:30 PM 75.2 °F 53.6 °F 47% 29.80 in 4.3 mi NW 16.1 mph - N/A   Unknown
9:20 PM 75.2 °F 53.6 °F 47% 29.83 in 4.3 mi NNW 11.5 mph - N/A   Unknown
9:30 PM 74 °F 54 °F 38% 29.84 in 4 mi NNW 11.2 mph - -   Haze
9:30 PM 75.2 °F 53.6 °F 47% 29.83 in 4.3 mi NNW 11.5 mph - N/A   Unknown